www.pogodaiklimat.ru

Погода и климат >> Архив погоды >> Украина >> Синельниково


ПОГОДА в Синельниково

  • Прогноз погоды в Синельниково
  • Монитор погоды в Синельниково

АРХИВ ПОГОДЫ в Синельниково

Время (UTC), дата Ветер
(напр.,м/с)
 
Видим.   Явления Облачность Т
(С)
Тd
(С)
f
(%)
Тe
(С)
Тes
(С)
Комфортность P
(гПа)
Po
(гПа)
Тmin
(С)
Tmax
(С)
R
(мм)
R24
(мм)
S
(см)
12 17.06 СВ 4 29 км 3/1 1000 м
[Cu hum Ac lent]
+29.0 +6.8 25 +28 +35 жарко 1014.1 997.5
15 17.06 СВ 4 26 км 1/0
[Ac trans]
+27.9 +10.6 34 +28 +31 жарко 1013.5 996.8
18 17.06 СВ 1 20 км 3/0
[Ac lent]
+24.4 +12.4 47 +26 +26 жарко 1014.4 997.5 +29.5
21 17.06 штиль 0 10 км 1/0
[Ac lent]
+18.5 +11.2 62 +19 +19 1015.1 997.9
00 18.06 штиль 0 10 км ясно +15.2 +10.5 74 +15 +15 1015.8 998.4
03 18.06 штиль 0 22 км ясно +16.6 +10.8 69 +17 +18 1015.8 998.5
06 18.06 С 3 27 км ясно +25.8 +13.2 46 +28 +36 жарко 1015.2 998.4 +14.5
09 18.06 С 5 30 км 4/4 1410 м
[Cu hum]
+28.8 +13.3 39 +30 +36 жарко 1014.6 998.0
12 18.06 С 4 30 км 8/8 1300 м
[Cu hum]
+29.8 +12.8 35 +31 +33 жарко 1013.8 997.2
15 18.06 С 5 28 км 6/6 1300 м
[Cu hum]
+30.1 +13.6 36 +32 +32 жарко 1012.8 996.3
18 18.06 С 2 20 км 1/0
[Ci fib]
+26.4 +15.4 51 +29 +29 жарко 1013.0 996.3 +30.9
21 18.06 СЗ 1 10 км ясно +22.7 +16.7 69 +27 +27 душно 1013.8 996.8
00 19.06 СЗ 1 10 км ясно +20.5 +17.2 81 +25 +25 комфорт 1013.9 996.8
03 19.06 С 1 22 км ясно +19.7 +16.5 82 +23 +24 комфорт 1013.3 996.2
06 19.06 С 5 25 км ясно +25.6 +15.6 54 +29 +34 душно 1013.4 996.6 +19.5
09 19.06 С 5 29 км 6/6 1300 м
[Cu med, cong]
+29.4 +13.8 38 +31 +35 жарко 1013.2 996.6
12 19.06 С 6 30 км 8/8 1350 м
[Cu med, cong]
+29.6 +12.7 35 +31 +32 жарко 1012.4 995.9
15 19.06 С 6 29 км 4/4 1110 м
[Cu med, cong]
+30.0 +12.8 35 +31 +32 жарко 1011.6 995.1
18 19.06 С 4 25 км 3/3 1000 м
[Cu med, cong]
+26.4 +14.4 48 +29 +29 жарко 1011.9 995.2 +30.8
21 19.06 С 3 10 км 3/3 1110 м
[Cu med, cong]
+22.8 +13.7 56 +26 +26 жарко 1013.0 996.1
00 20.06 СВ 3 10 км 3/3 1200 м
[Cu hum]
+20.9 +14.2 66 +24 +24 комфорт 1013.5 996.4
03 20.06 СВ 2 21 км 3/3 1200 м
[Cu med, cong]
+20.4 +14.2 68 +24 +24 комфорт 1014.0 996.9
06 20.06 СВ 5 27 км ясно +26.6 +15.1 49 +29 +34 жарко 1013.8 997.1 +19.6
09 20.06 СВ 7 30 км 8/8 1350 м
[Cu med, cong]
+29.8 +13.0 36 +31 +32 жарко 1013.1 996.6
12 20.06 СВ 7 30 км 8/8 1200 м
[Cu med, cong]
+31.4 +9.5 26 +31 +32 жарко 1012.7 996.2
15 20.06 СВ 6 28 км 4/4 1260 м
[Cu hum]
+30.2 +9.2 27 +30 +31 жарко 1012.5 996.0
18 20.06 С 5 24 км 3/0
[Ci fib]
+26.2 +11.0 39 +27 +27 жарко 1013.1 996.4 +32.3
21 20.06 С 3 10 км ясно +22.2 +10.4 47 +24 +24 комфорт 1014.1 997.1
00 21.06 СВ 4 10 км ясно +21.5 +10.6 50 +23 +23 комфорт 1014.8 997.8
06 21.06 СВ 5 29 км 3/0
[Ci fib]
+26.8 +11.6 39 +28 +33 жарко 1015.6 998.8 +19.3
12 21.06 С 6 28 км 4/4 1000 м
[Cu hum]
+33.0 +8.4 22 +32 +35 жарко 1014.2 997.8
18 21.06 С 1 20 км ясно +27.6 +11.2 36 +28 +28 жарко 1014.0 997.3 +33.4
00 22.06 СВ 1 10 км 3/0
[Ac trans]
+23.1 +10.6 45 +25 +25 комфорт 1015.3 998.3
06 22.06 СВ 5 30 км 3/0
[Ac lent]
+29.8 +10.8 31 +30 +34 жарко 1015.6 999.0 +21.6
12 22.06 СВ 5 35 км 8/4 1110 м
[Cu med, cong Ci fib]
+33.2 +8.2 21 +32 +35 жарко 1015.0 998.6
18 22.06 С 5 23 км 9/3 800 м
[Sc Ac lent]
+27.1 +12.3 40 +29 +29 жарко 1015.0 998.3 +34.0
00 23.06 В 1 10 км 10/10 800 м
[Sc]
+24.9 +10.6 41 +26 +26 жарко 1015.7 998.8
06 23.06 С 2 24 км {ливн. осадки} 10/6 800 м
[Cb cap Ac As]
+25.0 +13.8 50 +27 +28 жарко 1014.7 997.9 +22.6 0.0
12 23.06 СВ 3 28 км {ливн. осадки} 10/6 800 м
[Cb cap Ac lent]
+29.1 +13.5 38 +31 +32 жарко 1015.1 998.5
18 23.06 Ю 1 20 км 8/0
[Ac trans Cc]
+25.6 +13.8 48 +28 +28 жарко 1013.7 996.9 +29.5 0.0
00 24.06 ЮЗ 3 10 км {ливн. осадки} 10/10 800 м
[Cb cap]
+22.7 +15.0 62 +27 +27 душно 1014.4 997.4
06 24.06 ЮЗ 1 21 км слаб. ливневой дождь 10/10 900 м
[Cb cap]
+20.8 +18.2 85 +26 +26 душно 1015.1 998.0 +20.0 1

 

Местоположение метеостанции Синельниково (Днепропетровская область, Украина): широта 48.40 долгота 35.50 высота над уровнем моря 146 м.

В архиве по умолчанию представлена погода в Синельниково за последнюю неделю. Архивные данные за месяц целиком и за предыдущие месяцы, начиная с января 2011 года, Вы можете получить, выбрав интересующий диапазон дат из раскрывающегося списка и нажав кнопку "Ввод!".


*Определитесь, кто Вы:
робот инопланетянин человек

Внимание! Время в таблицах - всемирное. Для получения местного времени необходимо прибавить поправку, которая равна 2 ч.

Смотрите также архив погоды в соседних городах и на ближайших метеорологических станциях:

Погода в Павлограде (Днепропетровская область, Украина) (28 км)
Погода в Днепре (Днепропетровская область, Украина) (45 км)
Погода в Губинихе (Днепропетровская область, Украина) (48 км)
Погода в Чаплино (Днепропетровская область, Украина) (62 км)
Погода в Запорожье (Запорожская область, Украина) (76 км)
Погода в Александрополе (Днепропетровская область, Украина) (81 км)
Погода в Лозовой (Харьковская область, Украина) (82 км)
Погода в Гуляйполе (Запорожская область, Украина) (99 км)
Погода в Лошкаревке (Днепропетровская область, Украина) (106 км)
Погода в Краснограде (Харьковская область, Украина) (109 км)

Пояснения к столбцам:

Ветер - указаны скорость ветра в м/с - средняя за 10 мин, порывы в срок и между сроками (в фигурных скобках) и направление, откуда дует ветер: С - северный, СВ - северо-восточный, В - восточный, ЮВ - юго-восточный, Ю - южный, ЮЗ - юго-западный, З - западный, СЗ - северо-западный.
Видимость - горизонтальная дальность видимости в метрах или километрах. При видимости от 1 до 10 км при отсутствии осадков обычно наблюдается дымка, при ухудшении видимости до 1 км и менее - туман. В сухую погоду видимость может ухудшаться дымом, пылью или мглою.
Явления - указаны атмосферные явления, наблюдавшиеся в срок или в последний час перед сроком; фигурными скобками обозначены явления, наблюдавшиеся между сроками (за 1-3 часа до срока); квадратными скобками обозначены град или гололедные отложения с указанием их диаметра в мм.
Облачность - указаны через наклонную черту общая и нижняя облачность в баллах и высота нижней границы облаков в метрах; квадратными скобками обозначены формы облаков: Ci - перистые, Cs - перисто-слоистые, Cc - перисто-кучевые, Ac - высококучевые, As - высокослоистые, Sc - слоисто-кучевые, Ns - слоисто-дождевые, Cu - кучевые, Cb - кучево-дождевые. Подробнее классификацию облаков см. в Атласе облаков (PDF).
T - Температура воздуха - температура, измеренная на высоте 2 м над землей.
Td - Температура точки росы - температура, при понижении до которой содержащийся в воздухе водяной пар достигнет насыщения.
f - Относительная влажность воздуха - влажноcть воздуха, измеренная на высоте 2 м над землей.
Te - Эффективная температура - температура, которую ощущает одетый по сезону человек в тени. Характеристика душности погоды. При расчете учитывается влияние влажности воздуха и скорости ветра на теплоощущения человека.
Tes - Эффективная температура на солнце - температура, которую ощущает человек, с поправкой на солнечный нагрев. Характеристика знойности погоды. Зависит от высоты солнца над горизонтом, облачности и скорости ветра. Ночью, в пасмурную погоду, а также при ветре 12 м/с и более поправка равна нулю.
P - Атмосферное давление - приведенное к уровню моря атмосферное давление.
Po - Атмосферное давление - измеренное на уровне метеостанции атмосферное давление.
Tmin - Минимальная температура - минимум температуры воздуха на высоте 2 м над землей.
Tmax - Максимальная температура - максимум температуры воздуха на высоте 2 м над землей.
R - Количество осадков - Количество выпавших осадков за период времени, мм. При наведении курсора мыши на число - период времени, за который выпало указанное количество осадков.
R24 - Количество осадков - Количество выпавших осадков за 24 часа, мм.
S - Снежный покров - Высота снежного покрова, см. При наведении курсора мыши на число - состояние снежного покрова и степень покрытия местности в баллах.